[[{"header":{"parameterUnit":"m.s-1","parameterCategory":1,"la1":30.2991,"la2":30.254,"lo1":-89.0895,"lo2":-89.0444,"dy":0.0017,"dx":0.0017,"nx":28,"ny":28,"refTime":"2023-07-22T09:00:00:Z","depth":0,"parameterNumber":2,"parameterNumberName":"U-component_of_WINDS"},"data":[0,0,0,0,0,0,0,0,0,0,0,0,0,0,0,0,0,0,0,0,0,0,0,0,0,0,0,0,0,0,0,0,0,0,0,0,0,0,0,0,0,0,0,0,0,0,0,0,0,0,0,0,0,0,0,0,0,0,2.2585,2.2586,0,2.2759,2.2761,2.2763,2.2745,2.2743,2.274,2.2737,2.2916,2.2923,2.293,0,0,0,0,0,0,0,0,0,0,0,0,0,2.2234,2.224,2.2584,2.2587,2.2589,2.2759,2.2761,2.2764,2.2746,2.2743,2.2739,2.2736,2.2913,2.2922,2.2931,0,0,0,0,0,0,0,0,0,0,0,0,0,2.2395,2.2242,2.2584,2.26,2.2604,2.2759,2.2762,2.2765,2.2747,2.2742,2.2738,2.2735,2.2911,2.2921,2.2932,2.3082,0,0,2.2965,2.297,0,0,0,0,0,0,0,0,2.2386,2.2408,2.2596,2.2599,2.2603,2.2726,2.2703,2.2871,2.2748,2.2692,2.2737,2.2732,2.2856,2.2871,2.2913,2.309,2.3098,2.2966,2.2973,2.2978,2.2981,0,0,0,0,0,0,0,2.2375,2.24,2.2654,2.2598,2.2603,2.2599,2.2617,2.2735,2.2795,2.2697,2.2696,2.2717,2.2857,2.2903,2.2917,2.3101,2.2966,2.2976,2.2983,2.2987,2.3408,2.3413,0,0,0,0,0,0,2.236,2.2391,2.2648,2.2659,2.2482,2.2608,2.2629,2.2691,2.2794,2.2805,2.272,2.2715,2.2886,2.2904,2.2923,2.3104,2.2978,2.2988,2.2994,2.3404,2.3409,2.3414,0,0,0,0,0,0,2.2352,2.2383,2.2641,2.2525,2.2557,2.2619,2.2689,2.2697,2.2742,2.2811,2.2822,2.2755,2.2883,2.2908,2.3042,2.311,2.2993,2.3003,2.3398,2.3405,2.3412,2.3468,0,0,0,0,0,0,2.2342,2.238,2.2438,2.2526,2.2564,2.2758,2.2693,2.2703,2.2761,2.2756,2.2847,2.2858,2.2882,2.3026,2.3053,2.3123,2.3011,2.3392,2.3401,2.3409,2.3461,2.3476,2.349,0,0,0,0,0,2.233,2.2447,2.2441,2.2472,2.2637,2.2761,2.2783,2.2808,2.2766,2.2825,2.2869,2.2855,2.3099,2.304,2.307,2.3145,2.3388,2.3399,2.3409,2.3454,2.3473,2.3489,0,0,0,0,0,0,2.2365,2.2459,2.2453,2.2603,2.2674,2.2758,2.2832,2.2827,2.2912,2.2904,2.2931,2.2952,2.3087,2.313,2.3063,2.3295,2.3238,2.3255,2.3262,2.3281,2.3295,2.3281,2.3021,0,0,0,0,0,2.239,2.2484,2.2561,2.2685,2.2721,2.2771,2.2826,2.2839,2.2914,2.2944,2.2999,2.3072,2.3165,2.3225,2.3315,2.3467,2.3486,2.3533,2.3548,2.3559,2.3573,2.3656,2.3677,2.3448,2.3448,2.3448,0,0,2.2443,2.2506,2.2564,2.2694,2.2751,2.2846,2.2796,2.29,2.2971,2.296,2.309,2.3133,2.3216,2.336,2.3426,2.3399,2.3641,2.3573,2.3581,2.3589,2.3669,2.369,2.3709,2.3455,2.3454,2.3453,0,0,2.2588,2.2646,2.2755,2.2813,2.29,2.2932,2.2959,2.3044,2.3072,2.3203,2.3196,2.3281,2.3441,2.35,2.3551,2.3718,2.3708,2.3747,2.3822,2.3902,2.392,2.3936,2.3995,2.4015,2.3761,2.3761,2.3761,0,2.2643,2.2787,2.2812,2.2916,2.2973,2.2968,2.3079,2.3134,2.3246,2.3285,2.3254,2.3453,2.3509,2.3666,2.3707,2.3749,2.3779,2.3736,2.3916,2.3932,2.3948,2.4003,2.4025,2.3765,2.3764,2.3764,2.3763,0,2.2849,2.2949,2.3027,2.3135,2.3201,2.3308,2.3348,2.3412,2.342,2.3455,2.3588,2.3655,2.3757,2.3796,2.3804,2.3954,2.3934,2.391,2.3853,2.3973,2.4026,2.4047,2.377,2.3769,2.3768,2.3767,0,0,2.302,2.3141,2.3169,2.3217,2.3313,2.339,2.3496,2.3597,2.365,2.3728,2.3817,2.3952,2.3929,2.3987,2.4002,2.4073,2.4199,2.4039,2.4041,2.4065,2.4367,2.4384,2.4408,2.4194,2.4198,2.4201,2.4359,0,2.3174,2.3362,2.3387,2.3554,2.3646,2.3642,2.3735,2.3803,2.3839,2.3922,2.3962,2.4057,2.402,2.4055,2.4125,2.4169,2.426,2.4158,2.4276,2.428,2.4253,2.4436,2.4455,2.46,2.438,2.4384,2.4386,0,2.3377,2.346,2.3635,2.3717,2.3757,2.384,2.3933,2.4013,2.409,2.4111,2.4176,2.4182,2.4292,2.4231,2.4382,2.4312,2.4362,2.4391,2.4397,2.4408,2.4339,2.445,2.4648,2.4669,2.4419,2.4417,2.4414,0,2.3482,2.3638,2.3762,2.3804,2.3904,2.3962,2.4006,2.4079,2.4137,2.4219,2.4257,2.435,2.4401,2.4473,2.4505,2.4458,2.4653,2.4596,2.4673,2.4672,2.4712,2.4709,2.4919,2.4748,2.4747,2.4747,2.4746,0,2.365,2.3757,2.3811,2.3887,2.4007,2.4036,2.4153,2.4195,2.426,2.4345,2.4348,2.4427,2.4464,2.4549,2.4574,2.4694,2.4717,2.4737,2.4742,2.4736,2.4733,2.4767,2.4757,2.4753,2.4751,2.475,2.4749,0,2.3787,2.3828,2.3963,2.4046,2.4069,2.4154,2.4224,2.4298,2.4334,2.444,2.4467,2.4522,2.4622,2.4661,2.4783,2.4799,2.4938,2.4935,2.4911,2.4912,2.4986,2.4978,2.5224,2.5258,2.5066,2.5067,2.5069,0,2.389,2.3972,2.4064,2.4121,2.4167,2.4258,2.4317,2.4349,2.441,2.4504,2.4567,2.4666,2.4747,2.4906,2.4957,2.505,2.5049,2.5129,2.5063,2.5054,2.5049,2.5043,2.505,2.5141,2.5143,2.5145,2.5146,0,2.4069,2.4084,2.417,2.4263,2.4334,2.4408,2.4481,2.4527,2.4569,2.4638,2.474,2.4803,2.4927,2.5026,2.5121,2.5166,2.5163,2.5166,2.5189,2.5182,2.5164,2.5173,2.4943,2.516,2.5159,2.5158,2.5157,2.5156,2.4191,2.4263,2.4339,2.4434,2.4492,2.4559,2.4633,2.4677,2.4763,2.4866,2.4879,2.4988,2.5063,2.5191,2.524,2.5326,2.5304,2.5337,2.5345,2.5353,2.5357,2.5152,2.5343,2.5343,2.5343,2.5342,2.5342,0,2.4368,2.4416,2.4504,2.4605,2.4679,2.4671,2.475,2.4813,2.4909,2.4979,2.5058,2.5175,2.527,2.5329,2.5425,2.5481,2.5482,2.5505,2.5501,2.5511,2.5371,2.5341,2.5503,2.5503,2.5503,2.5503,2.5503,2.5503,2.4469,2.459,2.4615,2.4765,2.4813,2.492,2.4966,2.5028,2.5084,2.5214,2.5293,2.533,2.5396,2.5496,2.5583,2.5598,2.5632,2.5657,2.5669,2.5537,2.5521,2.5505,2.5477,2.5664,2.5665,2.5802,2.5803,2.5804]},{"header":{"parameterUnit":"m.s-1","parameterCategory":1,"la1":30.2991,"la2":30.254,"lo1":-89.0895,"lo2":-89.0444,"dy":0.0017,"dx":0.0017,"nx":28,"ny":28,"refTime":"2023-07-22T09:00:00:Z","depth":0,"parameterNumber":3,"parameterNumberName":"V-component_of_WINDS"},"data":[0,0,0,0,0,0,0,0,0,0,0,0,0,0,0,0,0,0,0,0,0,0,0,0,0,0,0,0,0,0,0,0,0,0,0,0,0,0,0,0,0,0,0,0,0,0,0,0,0,0,0,0,0,0,0,0,0,0,0.7289,0.729,0,0.7388,0.7389,0.739,0.7421,0.742,0.742,0.7419,0.7521,0.7524,0.7527,0,0,0,0,0,0,0,0,0,0,0,0,0,0.7123,0.7126,0.7288,0.729,0.7291,0.7388,0.7389,0.7391,0.7421,0.742,0.742,0.7419,0.752,0.7524,0.7527,0,0,0,0,0,0,0,0,0,0,0,0,0,0.7206,0.7127,0.7288,0.7318,0.7321,0.7388,0.7389,0.7391,0.7421,0.742,0.742,0.7419,0.7519,0.7523,0.7528,0.7572,0,0,0.7542,0.7544,0,0,0,0,0,0,0,0,0.7201,0.7212,0.7312,0.7316,0.732,0.7391,0.7368,0.7452,0.7421,0.7383,0.7419,0.7419,0.7478,0.7486,0.7507,0.7577,0.7581,0.7543,0.7546,0.7548,0.7549,0,0,0,0,0,0,0,0.7195,0.7208,0.7328,0.7314,0.7318,0.7325,0.7336,0.7384,0.7434,0.7386,0.7389,0.74,0.748,0.7502,0.7509,0.7582,0.7543,0.7547,0.755,0.7552,0.7692,0.7693,0,0,0,0,0,0,0.7185,0.7203,0.7325,0.7331,0.7258,0.7329,0.7341,0.7369,0.7433,0.7442,0.7401,0.7401,0.7494,0.7504,0.7513,0.7568,0.7548,0.7552,0.7555,0.7691,0.7692,0.7693,0,0,0,0,0,0,0.7181,0.7195,0.7321,0.7268,0.7284,0.7333,0.7364,0.7372,0.7393,0.7444,0.7453,0.7414,0.7494,0.7506,0.7557,0.7572,0.7554,0.7559,0.769,0.7692,0.7693,0.7679,0,0,0,0,0,0,0.7176,0.7194,0.7211,0.7268,0.7287,0.7363,0.7365,0.7374,0.7401,0.7403,0.7459,0.7467,0.7494,0.7549,0.7561,0.7578,0.7562,0.7689,0.7691,0.7692,0.7678,0.7679,0.768,0,0,0,0,0,0.717,0.7204,0.7212,0.7227,0.731,0.7364,0.7375,0.7406,0.7402,0.742,0.7453,0.7466,0.7568,0.7554,0.7568,0.7586,0.7688,0.769,0.7692,0.7677,0.7679,0.768,0,0,0,0,0,0,0.7148,0.7212,0.7222,0.7275,0.7314,0.7369,0.7393,0.7407,0.7447,0.7447,0.7483,0.7495,0.7543,0.757,0.7553,0.7632,0.7629,0.7633,0.7613,0.7615,0.7616,0.7608,0.7566,0,0,0,0,0,0.7149,0.7188,0.7242,0.7283,0.7302,0.7344,0.7369,0.7389,0.7431,0.7447,0.7484,0.7523,0.7565,0.7591,0.7632,0.7682,0.7694,0.7701,0.7702,0.7703,0.7707,0.7734,0.7738,0.77,0.77,0.77,0,0,0.7152,0.7192,0.7214,0.7279,0.7312,0.7351,0.7358,0.7399,0.7428,0.7454,0.7503,0.7531,0.7578,0.7628,0.7652,0.7652,0.772,0.7705,0.7706,0.7709,0.7736,0.774,0.7743,0.7701,0.7701,0.7701,0,0,0.7178,0.7212,0.725,0.7282,0.7331,0.7359,0.7368,0.7421,0.744,0.7491,0.751,0.7545,0.7616,0.7648,0.7673,0.7709,0.7722,0.7722,0.7728,0.7755,0.7758,0.776,0.7773,0.7777,0.7725,0.7725,0.7725,0,0.7175,0.7235,0.7267,0.7308,0.7335,0.736,0.7398,0.7428,0.7487,0.7506,0.7505,0.7593,0.7626,0.7683,0.7692,0.7712,0.7723,0.7716,0.7755,0.7758,0.7761,0.7773,0.7778,0.7725,0.7725,0.7725,0.7725,0,0.723,0.7271,0.7295,0.7352,0.7383,0.7422,0.7459,0.7486,0.7503,0.753,0.758,0.7621,0.767,0.7685,0.7702,0.7744,0.7743,0.7748,0.7745,0.7763,0.7775,0.778,0.7724,0.7724,0.7724,0.7725,0,0,0.7245,0.7318,0.7327,0.7352,0.7408,0.744,0.748,0.7528,0.7549,0.759,0.7623,0.7681,0.7686,0.7715,0.7736,0.7759,0.7784,0.7761,0.7762,0.7763,0.7832,0.7828,0.7833,0.7792,0.7793,0.7794,0.7828,0,0.7277,0.7349,0.7378,0.7437,0.7474,0.7498,0.7532,0.7569,0.7595,0.7631,0.7659,0.77,0.7703,0.7721,0.7744,0.7776,0.7798,0.7774,0.7824,0.7825,0.7811,0.7839,0.7835,0.7865,0.7833,0.7834,0.7834,0,0.7325,0.7365,0.7427,0.7477,0.7494,0.7524,0.757,0.7604,0.7646,0.7663,0.7695,0.7714,0.7755,0.775,0.7807,0.779,0.7812,0.783,0.7832,0.7838,0.7831,0.7846,0.7876,0.788,0.7842,0.7841,0.7841,0,0.7329,0.7399,0.7445,0.7466,0.7526,0.7546,0.7572,0.7613,0.764,0.7679,0.7697,0.7741,0.7764,0.7797,0.7828,0.7821,0.7882,0.7879,0.7897,0.7896,0.7909,0.7907,0.7942,0.7923,0.7923,0.7923,0.7922,0,0.7363,0.7399,0.7447,0.7475,0.7517,0.755,0.759,0.7617,0.7653,0.7686,0.7709,0.7739,0.7778,0.7813,0.7837,0.788,0.789,0.7905,0.7911,0.7903,0.7901,0.7918,0.7917,0.7924,0.7924,0.7923,0.7923,0,0.7375,0.7408,0.746,0.7511,0.7525,0.7553,0.7598,0.7625,0.7652,0.7694,0.7705,0.7747,0.7789,0.7823,0.7878,0.7894,0.7939,0.7946,0.7925,0.7928,0.7944,0.7942,0.7991,0.7999,0.7974,0.7974,0.7974,0,0.7394,0.7422,0.7477,0.7501,0.7526,0.7565,0.7592,0.7624,0.7651,0.7701,0.7722,0.7766,0.7804,0.787,0.7905,0.7947,0.7955,0.7969,0.7961,0.7952,0.7954,0.7952,0.7955,0.797,0.797,0.797,0.797,0,0.7423,0.7438,0.7477,0.752,0.7552,0.7588,0.7624,0.7643,0.7682,0.7711,0.7754,0.7783,0.7839,0.7882,0.7928,0.7954,0.7968,0.7972,0.7978,0.7971,0.7957,0.7964,0.7927,0.7971,0.7971,0.7971,0.7971,0.7971,0.744,0.7466,0.7508,0.755,0.758,0.7614,0.7642,0.7672,0.7709,0.7757,0.7774,0.7819,0.7859,0.7922,0.7948,0.7983,0.7983,0.7993,0.7995,0.7997,0.7996,0.7952,0.7991,0.7991,0.7991,0.7991,0.7991,0,0.747,0.7498,0.7536,0.7586,0.7619,0.7629,0.767,0.7696,0.7735,0.7772,0.7807,0.7857,0.7898,0.7936,0.7979,0.8,0.8008,0.801,0.8009,0.8014,0.7993,0.7983,0.8003,0.8003,0.8003,0.8003,0.8003,0.8003,0.749,0.7535,0.7555,0.7614,0.7642,0.7686,0.7708,0.7739,0.7768,0.7822,0.7857,0.7881,0.7918,0.7964,0.8002,0.8012,0.8027,0.8027,0.8039,0.8018,0.8016,0.8015,0.8005,0.803,0.803,0.8058,0.8058,0.8058]}]]